Location: Dos Palmas
(32.4468°N, 116.8732°W)
Time: 15:51:21
(UTC+00:00)

Cosmos 2151 - Pass Details

Date: 20 June 2021
Orbit: 581 x 600 km, 82.5° (Epoch: 27 July)

Event Time Altitude Azimuth Distance (km) Brightness Sun altitude
Exits shadow 09:47:48 44° 354° (N) 811 3.9 -27.3°
Drops below altitude 10° 09:50:45 10° 3° (N) 1,907 6.3 -27.0°
Sets 09:52:57 0° 5° (N) 2,809 7.4 -26.8°
